KJ7AZ-3 Weather Reports


time (UTC)temp
F
wind
direction
speed
knots
gust
knots
rain 1hr
in
rain 24hr
in
rain mn
in
humidity
%
barometer
mb
20260902060305 65 108 0.0 0.0 0.00 0.00 0.00
20260902054805 65 108 0.0 0.0 0.00 0.00 0.00
20260902053304 66 108 0.0 0.0 0.00 0.00 0.00
20260902051804 67 108 0.0 0.0 0.00 0.00 0.00
20260902050303 66 108 0.0 0.0 0.00 0.00 0.00
20260902044803 67 108 0.0 0.0 0.00 0.00 0.00
20260902043302 67 108 0.0 0.0 0.00 0.00 0.00
20260902041802 67 108 0.0 0.0 0.00 0.00 0.00
20260902040302 68 108 0.0 0.0 0.00 0.00 0.00
20260902034800 69 108 0.0 0.0 0.00 0.00 0.00
20260902033300 69 108 0.0 0.0 0.00 0.00 0.00
20260902031759 69 108 0.0 0.0 0.00 0.00 0.00
20260902030259 69 108 0.0 0.0 0.00 0.00 0.00
20260902024758 68 108 0.0 0.0 0.00 0.00 0.00
20260902023258 69 108 0.0 0.0 0.00 0.00 0.00
20260902021757 69 108 0.0 0.0 0.00 0.00 0.00
20260902020257 69 108 0.0 0.0 0.00 0.00 0.00
20260902014756 70 141 0.0 0.0 0.00 0.00 0.00
20260902013255 71 103 0.0 0.0 0.00 0.00 0.00
20260902011754 72 111 0.0 0.0 0.00 0.00 0.00
20260902010253 73 138 0.0 0.0 0.00 0.00 0.00
20260902004753 74 138 0.0 0.0 0.00 0.00 0.00
20260902003252 74 107 0.9 0.0 0.00 0.00 0.00
20260902001751 76 127 4.3 4.3 0.00 0.00 0.00
20260902000250 77 136 1.7 2.6 0.00 0.00 0.00
20260901234749 78 56 2.6 1.7 0.00 0.00 0.00
20260901233248 80 91 3.5 2.6 0.00 0.00 0.00
20260901231747 80 45 4.3 4.3 0.00 0.00 0.00
20260901230246 83 321 5.2 5.2 0.00 0.00 0.00
20260901224745 85 281 1.7 0.0 0.00 0.00 0.00
20260901223244 87 260 3.5 3.5 0.00 0.00 0.00
20260901221742 84 338 5.2 0.9 0.00 0.00 0.00
20260901220241 84 297 3.5 3.5 0.00 0.00 0.00
20260901211738 84 297 2.6 3.5 0.00 0.00 0.00
20260901210237 85 28 2.6 1.7 0.00 0.00 0.00
20260901203234 89 323 3.5 2.6 0.00 0.00 0.00
20260901200232 94 72 0.0 0.0 0.00 0.00 0.00
20260901194730 88 330 0.9 0.0 0.00 0.00 0.00
20260901193229 87 329 2.6 1.7 0.00 0.00 0.00
20260901191728 86 335 1.7 2.6 0.00 0.00 0.00
20260901190228 88 305 0.0 1.7 0.00 0.00 0.00
20260901184725 84 314 0.0 0.0 0.00 0.00 0.00
20260901183226 86 316 0.9 3.5 0.00 0.00 0.00
20260901181724 83 309 1.7 3.5 0.00 0.00 0.00
20260901180223 85 255 0.0 0.0 0.00 0.00 0.00
20260901173221 83 342 0.0 0.0 0.00 0.00 0.00
20260901171720 80 293 0.9 0.0 0.00 0.00 0.00
20260901170220 83 180 0.0 0.0 0.00 0.00 0.00
20260901160340 83 6 0.0 0.0 0.00 0.01 0.00
20260901154840 86 6 0.0 0.0 0.00 0.01 0.00
20260901153339 84 6 0.0 0.0 0.00 0.01 0.00
20260901151838 85 6 0.0 0.0 0.00 0.01 0.00
20260901150338 84 6 0.0 0.0 0.00 0.01 0.00
20260901144838 82 6 0.0 0.0 0.00 0.01 0.00
20260901143338 80 6 0.0 0.0 0.00 0.01 0.00
20260901141841 77 6 0.0 0.0 0.00 0.01 0.00
20260901140339 72 6 0.0 0.0 0.00 0.01 0.00
20260901134838 68 6 0.0 0.0 0.00 0.01 0.00
20260901131838 65 6 0.0 0.0 0.00 0.01 0.00
20260901130339 59 6 0.0 0.0 0.00 0.01 0.00
20260901124839 58 6 0.0 0.0 0.00 0.01 0.00
20260901123339 58 6 0.0 0.0 0.00 0.01 0.00
20260901121839 58 6 0.0 0.0 0.00 0.01 0.00
20260901120339 59 6 0.0 0.0 0.00 0.01 0.00
20260901114839 59 6 0.0 0.0 0.00 0.01 0.00
20260901113339 58 6 0.0 0.0 0.00 0.01 0.00
20260901111839 59 6 0.0 0.0 0.00 0.01 0.00
20260901110339 60 6 0.0 0.0 0.00 0.01 0.00
20260901104839 60 6 0.0 0.0 0.00 0.01 0.00
20260901103339 60 6 0.0 0.0 0.00 0.01 0.00
20260901101839 60 6 0.0 0.0 0.00 0.01 0.00
20260901100339 60 6 0.0 0.0 0.00 0.01 0.00
20260901094839 59 6 0.0 0.0 0.00 0.01 0.00
20260901093339 59 6 0.0 0.0 0.00 0.01 0.00
20260901091839 59 6 0.0 0.0 0.00 0.01 0.00
20260901090339 59 6 0.0 0.0 0.00 0.01 0.00
20260901084839 61 6 0.0 0.0 0.00 0.01 0.00
20260901083339 60 6 0.0 0.0 0.00 0.01 0.00
20260901081840 62 6 0.0 0.0 0.00 0.01 0.00
20260901080339 62 6 0.0 0.0 0.00 0.01 0.00
20260901074840 62 6 0.0 0.0 0.00 0.01 0.00
20260901073339 62 6 0.0 0.0 0.00 0.01 0.00
20260901071840 61 290 0.0 1.7 0.00 0.01 0.00
20260901070340 62 302 2.6 0.9 0.00 0.01 0.00
20260901064840 61 37 0.0 0.0 0.00 0.01 0.00
20260901063340 61 46 0.0 0.0 0.00 0.01 0.00
20260901061840 61 46 0.0 0.0 0.00 0.01 0.00